Temperature
17 17 17 17 16 16 16 16 16 16 17 17 17 17 17 17 17 17 17 17 17 17 17 17 17 17 17 17 17 17 17 17 17 17 17 17 16 16 16 16 16 16 16
17 17 17 16 16 16 16 16 16 16 16 16 16 16 16 16 16 17 17 17 17 17 17 17 17 17 17 17 17 17 17 17 17 17 17 17 16 16 16 16 16 16 16
17 17 16 16 16 16 16 16 16 16 16 16 16 16 16 16 16 16 16 17 17 17 17 17 16 17 17 17 17 17 17 17 17 17 17 17 16 16 16 16 16 16 16
17 16 16 16 16 16 16 16 16 16 16 16 16 16 16 16 16 16 16 16 16 16 16 16 16 16 16 16 16 16 16 16 16 16 16 17 16 16 16 16 16 16 16
17 16 16 16 16 16 16 16 16 16 16 16 16 16 16 16 16 16 16 16 16 16 16 16 16 16 16 16 16 16 16 16 16 16 16 16 16 16 16 16 16 16 16
16 16 16 16 15 15 15 15 15 16 16 16 16 16 16 16 16 16 16 16 16 16 16 16 16 16 16 16 16 16 16 16 16 16 16 16 16 16 16 16 16 16 16
16 16 16 15 15 15 15 15 15 15 16 16 16 16 16 16 16 16 16 16 16 16 16 16 16 16 16 16 16 16 16 15 15 15 15 16 16 16 16 16 16 16 16
16 16 15 15 15 15 15 15 15 15 15 16 16 16 16 16 16 16 16 16 16 16 16 16 16 16 16 15 15 15 15 15 15 15 15 15 15 15 15 15 15 16 16
16 16 15 15 15 15 15 15 15 15 15 15 16 16 16 16 16 16 16 16 16 16 16 16 16 15 15 15 15 15 15 15 15 15 15 15 15 15 15 15 15 15 15
16 16 15 15 15 15 15 15 15 15 15 15 15 16 16 16 16 16 16 16 16 16 16 16 16 16 15 15 15 15 15 15 15 15 15 15 15 15 15 15 15 15 15
16 16 15 15 15 15 15 15 15 15 15 15 15 15 15 15 16 16 16 16 16 16 16 16 16 15 15 15 15 15 15 15 15 15 15 15 15 15 15 15 15 15 15
16 16 15 15 15 15 15 15 15 15 15 15 15 15 15 15 15 16 15 15 16 16 15 15 15 15 15 15 15 15 15 15 15 15 15 15 15 15 15 15 15 15 15
16 16 16 15 15 15 15 15 15 15 15 15 15 15 15 15 15 15 15 15 15 15 15 15 15 15 15 15 15 15 14 14 14 14 14 14 14 14 14 14 14 15 15
17 16 16 16 15 15 15 15 15 15 14 14 15 15 15 15 15 15 15 15 15 15 15 15 15 15 15 15 15 14 14 14 14 14 14 14 14 14 14 14 14 14 14
17 16 16 16 15 15 15 15 15 15 14 14 14 14 15 14 14 14 14 15 15 15 15 15 15 15 15 15 14 14 14 14 14 14 14 14 14 14 14 14 14 14 14
17 16 16 16 16 15 15 15 15 15 14 14 14 14 14 14 14 14 14 14 14 14 14 15 15 14 14 14 14 14 14 14 14 14 13 13 13 13 13 14 14 14 14
17 17 16 16 16 16 16 15 15 15 15 15 15 15 15 14 14 14 14 14 14 14 14 14 14 14 14 14 14 14 14 14 13 13 13 13 13 13 13 13 13 13 13
17 17 17 16 16 16 16 16 16 16 15 15 15 15 15 15 15 14 14 14 14 14 14 14 15 14 14 14 14 14 14 14 13 13 13 13 13 13 13 13 13 13 13
17 17 17 16 16 16 16 16 16 16 16 16 15 15 15 15 15 15 15 14 14 14 14 14 14 14 14 14 14 14 14 14 14 13 13 13 13 13 13 13 13 13 13
17 17 17 17 16 16 16 16 16 16 16 16 15 15 15 15 15 15 15 15 14 14 14 14 14 14 14 14 14 14 14 14 14 13 13 13 13 13 13 13 13 13 13
17 17 17 16 16 16 16 16 16 16 16 15 15 15 15 15 15 15 15 14 14 14 14 14 14 14 14 14 14 14 13 14 14 13 13 13 13 13 13 13 13 13 13
16 16 16 16 16 16 16 15 15 15 15 15 15 15 15 15 15 14 14 14 14 14 14 14 14 14 14 14 14 13 13 13 13 14 13 13 13 13 13 13 13 13 13
16 16 16 15 15 15 15 15 15 15 15 15 15 15 15 15 14 14 14 14 14 14 14 13 13 14 14 14 13 13 13 13 13 13 13 13 13 13 13 13 13 13 13
16 15 15 15 15 15 15 15 15 14 14 14 14 14 14 14 14 14 14 14 14 14 13 13 13 13 13 13 13 13 12 12 12 13 12 12 13 13 13 13 13 13 13
15 15 15 14 14 14 14 14 14 14 14 14 14 14 14 14 13 13 13 13 13 13 13 13 13 13 13 13 12 12 12 12 12 13 13 12 13 13 13 13 13 13 13
14 14 14 14 13 13 13 13 13 13 13 13 13 13 13 13 13 12 12 12 12 13 12 12 12 12 12 12 12 12 12 12 11 12 12 12 12 12 12 13 13 13 13
Wind_Speed
3 3 3 3 3 4 3 2 2 1 1 2 3 6 6 8 9 10 10 13 15 15 15 16 16 15 15 14 14 14 14 14 14 14 14 14 13 13 12 12 12 11 11
5 4 3 3 3 3 3 3 2 2 1 1 1 4 6 8 9 10 11 12 14 15 15 15 15 15 15 15 15 15 15 14 15 15 15 14 14 14 13 12 12 12 11
7 5 3 2 2 4 5 4 4 3 2 1 1 1 3 6 8 10 11 11 12 14 15 15 15 15 15 15 15 15 15 15 15 16 16 16 15 15 14 14 13 13 12
9 6 3 3 4 5 4 3 3 3 3 2 1 0 1 2 4 6 8 9 10 10 13 15 15 15 14 14 14 15 15 15 16 16 16 16 16 16 15 15 14 14 13
10 7 4 3 6 5 3 3 3 2 2 1 0 1 0 1 1 3 4 6 9 10 11 12 14 14 13 13 14 15 15 16 16 16 16 16 16 16 16 16 15 15 14
9 7 4 4 6 4 3 3 3 3 1 1 1 2 1 0 0 1 2 3 6 8 10 9 10 11 12 13 13 14 15 16 16 16 16 16 16 17 17 17 17 16 16
8 7 4 4 4 4 3 3 2 3 3 2 3 3 4 3 2 0 1 2 2 4 7 8 9 8 8 11 12 13 13 14 14 15 15 15 16 17 18 18 18 18 17
8 7 5 4 4 4 4 4 3 2 2 2 3 3 3 4 4 3 1 1 2 2 4 6 7 7 6 7 9 11 11 12 12 13 14 14 15 16 17 18 18 18 18
8 8 7 5 4 4 3 3 3 4 2 3 2 3 4 3 2 3 2 1 1 1 1 3 5 7 7 6 6 8 9 10 11 11 12 13 14 15 15 16 16 17 18
8 9 8 7 5 4 4 3 4 3 4 2 2 2 2 3 3 0 3 3 2 0 1 2 3 5 7 6 6 6 6 7 7 8 8 10 11 13 14 15 16 16 17
6 8 8 6 5 4 4 4 4 4 3 3 2 2 3 3 2 3 0 3 3 3 2 1 2 4 7 7 7 6 5 5 5 5 5 6 7 9 12 13 14 15 16
4 5 7 6 5 4 5 4 4 5 3 3 2 2 2 2 1 2 2 1 2 3 2 1 1 3 6 8 7 7 6 5 4 4 4 5 6 6 8 10 12 13 14
4 6 6 6 5 5 5 4 4 4 3 3 3 2 2 2 2 3 3 1 1 3 3 2 2 4 6 8 8 9 8 7 6 5 5 5 6 6 7 8 10 11 12
7 7 7 7 7 7 6 5 3 3 3 3 3 2 2 1 2 2 3 3 2 3 3 3 2 3 6 10 11 10 9 9 8 8 8 8 8 8 9 9 9 10 11
7 8 8 8 7 6 6 6 4 4 4 3 3 2 2 1 1 1 2 4 4 1 2 3 2 2 4 8 10 11 10 12 12 12 12 12 12 12 12 12 11 11 11
7 8 9 9 9 7 7 6 4 4 5 4 3 3 2 2 1 1 1 2 3 4 3 3 3 3 3 5 10 12 13 13 14 15 15 16 16 16 15 14 14 14 13
8 10 10 10 10 9 8 7 6 6 6 5 5 5 6 4 3 2 1 2 2 3 3 4 3 3 2 4 5 10 12 12 13 15 17 18 19 19 19 18 18 17 16
9 10 10 10 10 10 9 9 9 8 7 7 7 6 7 5 5 4 3 3 3 3 4 5 3 3 4 5 5 5 8 11 13 15 17 19 19 20 21 21 20 20 19
8 9 9 10 10 9 9 9 9 9 8 8 8 8 8 7 6 5 5 5 4 4 4 4 5 3 4 4 4 5 5 6 10 13 15 17 18 19 20 21 22 22 22
9 9 9 10 9 9 9 9 9 9 9 8 8 8 8 8 9 8 7 7 6 5 5 5 5 5 5 5 3 4 5 5 6 8 11 13 14 16 17 20 21 22 23
10 9 9 8 8 7 8 8 8 9 9 8 8 8 9 11 12 10 8 8 7 6 6 6 6 5 5 4 5 4 5 6 5 5 5 6 6 7 11 16 18 21 23
7 7 8 8 7 8 9 11 9 7 8 8 8 8 8 9 12 14 15 13 11 9 9 7 7 8 9 7 6 5 5 4 6 4 4 6 4 6 7 12 17 20 22
5 5 6 6 7 7 9 11 12 8 7 8 8 7 8 8 8 7 10 13 13 15 14 10 10 11 10 8 7 7 7 8 8 6 4 6 5 7 8 14 19 21 23
5 5 4 4 4 5 6 8 8 6 5 6 6 6 6 7 5 5 6 7 8 9 11 10 11 12 12 10 9 10 9 8 7 6 5 7 7 7 8 11 19 22 24
3 3 3 3 3 2 2 3 4 2 3 4 4 4 4 4 5 4 4 6 8 9 11 14 15 16 18 18 12 6 6 6 8 7 6 6 7 7 7 8 14 21 23
3 3 2 2 2 2 3 1 2 1 2 3 3 2 2 3 5 5 4 6 9 10 8 9 9 12 13 14 16 12 10 10 8 7 6 7 7 5 5 6 8 10 13
Wind_Direction
122 119 118 121 126 133 137 136 141 141 134 136 140 144 151 159 166 178 192 196 197 194 194 191 188 187 186 185 183 183 182 178 176 175 173 171 169 169 168 166 165 162 160
119 117 108 96 96 106 116 124 116 103 117 135 134 140 149 162 173 182 194 203 204 202 202 198 195 193 191 191 190 190 191 188 184 183 183 181 179 177 176 175 174 172 171
112 113 108 93 79 91 95 85 69 66 72 74 88 130 147 162 172 184 194 204 209 212 211 205 203 201 198 196 196 197 197 195 192 191 190 189 188 186 185 183 183 182 183
112 106 100 84 79 89 87 83 64 59 53 56 46 341 148 167 183 187 189 200 208 213 216 212 208 208 205 204 205 204 202 199 198 198 197 196 195 194 193 192 191 191 191
117 111 99 90 91 83 74 84 69 79 68 42 36 61 73 165 188 186 185 199 208 211 214 217 214 213 213 213 211 211 208 205 204 203 203 202 202 201 201 200 199 198 198
121 113 106 96 99 90 75 68 61 52 72 47 38 43 358 315 145 141 166 175 194 203 208 213 215 218 221 221 219 216 213 211 210 209 208 207 207 208 208 207 206 205 205
127 117 110 97 100 101 100 86 68 49 28 37 62 27 1 1 10 12 106 115 150 185 189 199 205 212 225 228 227 224 218 215 214 215 213 213 213 213 213 214 213 212 212
138 128 122 121 116 105 81 69 69 67 22 45 104 89 33 360 352 355 355 125 123 137 175 195 204 208 215 216 224 226 221 219 220 220 219 219 220 218 218 219 218 218 218
145 137 137 129 121 120 114 97 87 91 60 16 74 134 136 197 301 332 332 358 122 125 157 175 187 195 199 199 207 219 222 224 226 228 227 225 225 223 221 222 224 224 223
155 150 146 136 127 130 134 124 99 101 102 50 7 33 128 153 144 336 332 337 335 248 198 177 171 180 182 181 191 202 213 219 225 234 235 231 229 227 227 228 229 228 228
168 163 156 143 136 138 141 126 112 104 107 110 73 42 50 55 80 127 255 323 334 310 269 212 172 168 173 175 179 187 190 204 220 233 240 242 242 239 238 236 236 236 236
179 177 167 157 152 148 153 149 135 125 121 115 105 94 106 102 104 125 147 266 291 298 306 294 206 190 184 182 184 183 182 188 204 221 234 247 252 252 249 242 240 243 244
190 194 174 166 161 167 168 158 144 141 142 138 140 133 132 148 162 147 134 151 329 311 328 314 254 208 194 186 187 187 191 197 208 220 232 242 251 257 260 257 252 251 252
194 188 181 177 175 174 174 164 157 168 163 166 162 152 147 152 151 158 153 138 64 343 334 303 305 235 204 192 197 197 206 214 222 230 238 243 248 253 258 260 260 259 259
197 189 184 181 179 176 175 167 173 186 179 189 190 183 191 209 145 149 151 150 145 153 290 294 306 286 228 213 212 209 220 227 233 239 245 250 253 254 254 254 254 255 257
195 183 184 183 183 181 176 173 178 187 183 196 195 191 205 215 202 144 142 149 152 160 214 264 263 268 240 230 228 222 231 238 241 245 251 255 257 257 255 254 254 254 255
190 186 185 183 185 188 184 182 191 190 196 207 207 204 220 217 213 215 181 161 163 159 200 267 266 270 243 249 246 240 246 247 249 251 255 259 260 259 256 255 254 254 254
190 186 183 185 191 193 191 191 199 201 202 211 217 213 224 221 220 223 213 213 208 193 193 245 273 273 258 252 247 248 251 250 248 255 257 260 262 260 256 254 253 253 253
190 188 184 190 196 196 197 201 203 206 208 213 215 215 222 213 221 223 220 221 225 220 200 220 257 260 266 265 266 267 261 258 258 259 260 261 263 262 258 254 253 252 253
190 191 192 194 195 196 199 206 208 212 216 219 219 218 219 212 217 219 223 224 223 227 223 229 250 261 263 268 253 263 278 267 263 264 264 265 264 266 262 258 256 255 255
200 194 192 195 197 200 209 208 211 216 218 227 230 228 227 223 221 218 221 220 218 225 230 236 249 257 258 257 249 243 254 269 270 252 260 265 260 261 264 262 259 257 255
205 192 196 197 203 216 217 211 207 218 217 222 231 238 242 239 237 233 233 227 216 220 227 231 241 242 252 243 242 239 241 254 272 252 224 259 239 252 254 255 256 255 255
198 187 194 198 209 223 222 217 215 216 223 227 228 233 247 249 242 245 249 248 240 234 227 226 236 245 248 240 232 240 236 234 245 241 215 260 250 254 253 255 254 254 255
191 184 188 198 209 229 229 230 229 226 233 238 236 233 237 253 258 253 258 262 259 254 245 238 239 248 247 243 231 237 243 248 252 248 207 247 255 251 257 253 255 254 255
169 167 171 193 211 252 256 250 231 226 247 260 264 256 245 253 277 274 266 271 275 274 268 256 249 252 254 253 245 242 244 244 260 258 212 223 253 257 257 257 257 254 253
123 118 115 108 119 96 53 61 168 178 268 287 296 292 261 271 292 294 270 267 274 278 283 286 274 267 261 259 251 236 237 243 251 258 229 216 242 240 263 255 251 251 251
Height
1550 1550 1551 1552 1552 1553 1554 1555 1556 1557 1558 1559 1559 1560 1560 1561 1562 1563 1564 1565 1566 1567 1568 1570 1571 1572 1573 1573 1574 1576 1577 1578 1579 1580 1581 1582 1583 1583 1584 1585 1586 1587 1588
1550 1550 1550 1551 1551 1552 1553 1554 1555 1556 1557 1558 1559 1560 1560 1561 1562 1563 1564 1565 1566 1567 1568 1569 1570 1571 1572 1573 1574 1575 1576 1577 1578 1579 1580 1581 1582 1583 1584 1585 1586 1587 1588
1549 1549 1550 1550 1551 1552 1553 1554 1555 1556 1557 1557 1558 1559 1560 1561 1561 1562 1563 1564 1565 1566 1567 1568 1569 1570 1571 1572 1573 1574 1575 1576 1577 1578 1579 1580 1581 1582 1583 1584 1585 1586 1587
1548 1549 1549 1550 1550 1551 1552 1553 1554 1555 1556 1557 1558 1559 1559 1560 1561 1562 1562 1563 1564 1565 1566 1567 1568 1569 1569 1570 1571 1572 1573 1575 1576 1577 1578 1580 1581 1582 1583 1584 1585 1586 1587
1547 1548 1548 1549 1550 1551 1552 1552 1553 1554 1555 1556 1557 1558 1559 1560 1560 1561 1562 1563 1564 1564 1565 1566 1567 1567 1568 1568 1569 1570 1571 1573 1574 1575 1577 1578 1579 1580 1581 1582 1584 1585 1586
1547 1547 1548 1548 1549 1550 1551 1552 1553 1554 1555 1556 1557 1558 1559 1560 1560 1561 1561 1562 1563 1563 1564 1564 1565 1566 1566 1567 1567 1568 1569 1570 1572 1573 1575 1576 1577 1578 1580 1581 1582 1583 1584
1546 1547 1548 1548 1549 1550 1551 1551 1552 1553 1555 1556 1557 1558 1559 1559 1560 1561 1561 1561 1562 1562 1563 1563 1564 1564 1564 1565 1565 1566 1567 1567 1569 1570 1572 1573 1575 1576 1577 1579 1580 1581 1582
1546 1547 1547 1548 1549 1549 1550 1551 1552 1553 1554 1555 1556 1557 1558 1560 1560 1560 1561 1561 1561 1561 1562 1562 1563 1563 1563 1563 1563 1564 1565 1565 1566 1568 1569 1570 1572 1573 1574 1576 1577 1578 1580
1546 1546 1547 1548 1548 1549 1550 1551 1552 1553 1554 1555 1556 1557 1558 1558 1559 1560 1560 1561 1561 1561 1561 1561 1561 1561 1562 1562 1562 1562 1563 1563 1564 1565 1566 1567 1568 1569 1571 1572 1574 1575 1576
1545 1546 1547 1548 1548 1549 1550 1551 1552 1553 1554 1555 1555 1556 1557 1557 1558 1559 1560 1560 1560 1560 1561 1561 1561 1561 1560 1561 1561 1561 1561 1561 1562 1563 1563 1564 1565 1566 1567 1569 1570 1571 1573
1545 1546 1546 1547 1547 1548 1549 1550 1551 1552 1553 1554 1555 1555 1556 1556 1557 1558 1558 1559 1560 1560 1560 1560 1560 1560 1560 1559 1559 1560 1560 1560 1560 1561 1561 1561 1562 1563 1564 1565 1566 1567 1568
1544 1545 1546 1546 1547 1548 1549 1550 1550 1552 1553 1554 1554 1555 1556 1556 1556 1557 1557 1558 1558 1559 1559 1559 1559 1559 1559 1558 1558 1558 1558 1558 1558 1558 1559 1559 1559 1560 1560 1561 1562 1563 1564
1542 1543 1544 1545 1546 1547 1548 1549 1549 1550 1552 1553 1554 1554 1555 1556 1556 1557 1557 1557 1557 1557 1558 1558 1558 1558 1558 1558 1557 1557 1557 1557 1556 1556 1556 1556 1556 1556 1557 1557 1558 1559 1560
1540 1542 1543 1544 1545 1546 1547 1548 1548 1549 1550 1551 1552 1553 1554 1555 1555 1555 1556 1556 1556 1556 1556 1556 1556 1556 1556 1556 1556 1556 1555 1555 1554 1553 1553 1552 1552 1553 1553 1553 1554 1554 1555
1539 1540 1541 1543 1544 1544 1545 1546 1547 1548 1549 1550 1551 1552 1553 1553 1554 1554 1554 1555 1555 1555 1555 1554 1554 1555 1555 1555 1554 1554 1553 1552 1551 1550 1550 1549 1549 1549 1549 1549 1550 1550 1551
1537 1538 1540 1541 1542 1543 1544 1545 1546 1546 1547 1548 1549 1550 1551 1552 1552 1553 1553 1553 1553 1553 1553 1553 1553 1553 1552 1552 1552 1551 1551 1550 1549 1548 1547 1546 1546 1546 1545 1545 1546 1546 1546
1534 1536 1537 1538 1539 1541 1542 1542 1543 1544 1545 1546 1547 1548 1549 1550 1550 1551 1551 1551 1551 1551 1550 1550 1550 1550 1550 1549 1549 1549 1548 1547 1546 1545 1544 1543 1542 1542 1542 1542 1541 1541 1541
1531 1533 1534 1536 1537 1538 1539 1540 1541 1542 1543 1544 1545 1545 1546 1547 1548 1548 1548 1548 1548 1548 1548 1547 1547 1547 1546 1546 1545 1545 1544 1543 1542 1541 1540 1539 1539 1538 1538 1538 1537 1537 1537
1528 1530 1531 1532 1534 1535 1536 1537 1538 1539 1540 1541 1542 1543 1544 1544 1545 1545 1546 1545 1545 1545 1545 1544 1543 1543 1542 1542 1541 1540 1540 1539 1538 1537 1536 1535 1535 1534 1533 1533 1533 1532 1532
1525 1527 1528 1529 1530 1532 1533 1534 1535 1536 1537 1538 1539 1540 1540 1541 1541 1542 1542 1542 1542 1542 1541 1540 1539 1538 1538 1538 1537 1536 1535 1534 1533 1533 1532 1531 1530 1529 1529 1528 1528 1527 1527
1521 1523 1524 1525 1527 1528 1529 1530 1531 1532 1533 1534 1535 1536 1537 1537 1538 1538 1538 1538 1538 1537 1536 1535 1534 1533 1532 1532 1532 1531 1529 1528 1527 1527 1526 1525 1524 1523 1523 1522 1522 1521 1521
1517 1518 1519 1520 1522 1523 1524 1526 1527 1528 1529 1530 1530 1531 1532 1533 1533 1533 1533 1533 1533 1532 1531 1530 1529 1528 1526 1526 1526 1525 1524 1522 1520 1521 1520 1518 1518 1516 1516 1515 1515 1515 1514
1511 1512 1514 1515 1517 1518 1520 1521 1522 1523 1524 1524 1525 1526 1527 1527 1528 1527 1527 1527 1526 1526 1525 1525 1523 1521 1521 1520 1520 1518 1517 1515 1513 1513 1513 1509 1510 1508 1509 1508 1507 1507 1506
1506 1507 1509 1511 1512 1513 1515 1516 1517 1518 1519 1520 1520 1520 1520 1521 1521 1521 1520 1519 1518 1518 1518 1517 1515 1514 1514 1513 1513 1511 1509 1507 1505 1505 1505 1502 1501 1500 1500 1499 1499 1499 1498
1501 1502 1504 1507 1508 1509 1510 1512 1512 1513 1513 1514 1514 1514 1514 1514 1514 1513 1513 1511 1510 1509 1509 1508 1507 1506 1506 1505 1505 1503 1501 1499 1495 1495 1497 1494 1492 1491 1490 1490 1490 1490 1490
1497 1499 1501 1503 1504 1505 1506 1507 1507 1508 1508 1508 1508 1508 1507 1507 1506 1506 1505 1503 1502 1501 1500 1499 1498 1497 1496 1495 1495 1494 1492 1490 1486 1485 1486 1486 1483 1483 1480 1480 1481 1481 1481